Flag for Gabon Weather past 2 weeks in Libreville, Gabon

Now
79 °F

Broken clouds.


Feels Like: 82 °F
Forecast: 76 / 79 °F
Wind: 9 mph from Southeast

Location: Libreville Airport

Current Time: Sep 5, 2015 at 11:29:54 AM

Latest Report: Sep 5, 2015 at 10:00 AM


Visibility: N/A

Pressure: 30.01 "Hg

Humidity: 79%

Dew point: 72 °F

Location of LibrevilleLocation

Historic Weather in Libreville — Graph

°F

Libreville temperature yesterday

Maximum temperature yesterday: 81 °F (at 12:00 PM)
Minimum temperature yesterday: 75 °F (at 5:00 AM)
Average temperature yesterday: 77 °F

Past Weeks' High & Low Weather Summary

 TemperatureHumidityPressure
High82 °F (Aug 23, 2:00 PM)94% (Aug 23, 7:00 AM)30.04 "Hg (Aug 23, 7:00 AM)
Low73 °F (Aug 22, 8:00 AM)66% (Aug 23, 2:00 PM)29.83 "Hg (Aug 23, 5:00 PM)
Average77 °F82%29.95 "Hg
* Reported Aug 21 10:00 AM — Sep 5 10:00 AM, Libreville, Weather by CustomWeather, © 2015

Note: Actual official high and low records may vary slightly from our data, if they occured in-between our weather recording intervals... More about our weather records

Advertising

Libreville weather history for previous 24 hours

 ConditionsComfort  
Time TempWeatherWind HumidityBarometerVisibility
10:00 AM
Sat, Sep 5
79 °FBroken clouds.9 mph79%30.01 "HgN/A
9:00 AM77 °FScattered clouds.8 mph83%30.01 "HgN/A
8:00 AM75 °FPartly sunny.8 mph89%29.98 "HgN/A
7:04 AM75 °FPartly sunny.9 mph89%29.98 "HgN/A
7:00 AM75 °FBroken clouds.9 mph89%29.95 "HgN/A
6:00 AM75 °FPassing clouds.10 mph89%29.95 "HgN/A
5:00 AM75 °FPassing clouds.12 mph89%29.92 "HgN/A
4:00 AM77 °FPassing clouds.8 mph83%29.92 "HgN/A
3:00 AM77 °FPassing clouds.8 mph83%29.92 "HgN/A
2:00 AM77 °FPassing clouds.8 mph83%29.92 "HgN/A
1:00 AM77 °FPassing clouds.8 mph83%29.95 "HgN/A
12:00 AM77 °FPassing clouds.9 mph83%29.95 "HgN/A
11:00 PM
Fri, Sep 4
77 °FPassing clouds.8 mph89%29.98 "HgN/A
10:00 PM77 °FPassing clouds.9 mph89%29.98 "HgN/A
9:00 PM77 °FPassing clouds.7 mph89%29.95 "HgN/A
8:00 PM77 °FPassing clouds.7 mph89%29.95 "HgN/A
7:00 PM77 °FPassing clouds.8 mph89%29.92 "HgN/A
6:00 PM79 °FPassing clouds.8 mph84%29.92 "HgN/A
5:00 PM79 °FPassing clouds.8 mph84%29.89 "HgN/A
4:00 PM81 °FPassing clouds.9 mph79%29.89 "HgN/A
3:00 PM81 °FPassing clouds.8 mph79%29.92 "HgN/A
2:00 PM81 °FScattered clouds.8 mph74%29.95 "HgN/A
1:00 PM81 °FMore clouds than sun.5 mph74%29.95 "HgN/A
12:00 PM81 °FMore clouds than sun.7 mph74%29.98 "HgN/A
11:00 AM77 °FMore clouds than sun.9 mph83%30.01 "HgN/A
Weather by CustomWeather, © 2015

See weather overviewHow to use our weather pages